FLOCK 4BE-23 (60490 NORAD) Tracking and Keplerian Element Data

This shows tracking and keplerian element data for the satellite.

Feedback or suggestion? Click here.




ElementValue
Catalog60490
NameFLOCK 4BE-23
Epoch Orbit864
Epoch Day286.77113072
Epoch Year2024
RAAN1.4464
Inclination97.4392
Eccentricity0.0004025
Argument of Perigee268.5446
Mean Anonmoly91.5328
Mean Motion15.19405052
Decay Rate0.00018167
L11 60490U 24149Y 24286.77113072 .00018167 00000+0 85972-3 0 9995
L22 60490 97.4392 1.4464 0004025 268.5446 91.5328 15.19405052 8648



Live tracking and technical data element details for FLOCK 4BE-23 (NORAD 60490). FLOCK 4BE-23 can be tracked NOW for your location showing map with azimuth and elevation plus other details from your city location.







IsCatalogInMostPopularTable: catalog: 60490, numindb: 6
Update: records affected: 1



GetName: 60490 FLOCK 4BE-23

Hit Count: updated at: Wed, 04 Dec 2024 19:35:18 GMT